Regional Weather Roundup
Issued by NWS Sioux Falls, SD

Home | Current Version | Previous Version | Graphics & Text | Print | Product List | Glossary On
Versions: 1 2 3 4 5 6 7 8 9 10 11 12 13 14 15 16 17 18 19 20 21 22 23 24 25 26 27 28 29 30 31 32 33 34 35 36 37 38 39 40 41 42 43 44 45 46 47 48 49 50
000
ASUS43 KFSD 011610
RWRFSD

WEATHER ROUNDUP FOR SE SOUTH DAKOTA/SW MINNESOTA/NW IOWA
NATIONAL WEATHER SERVICE SIOUX FALLS SD
1100 AM CDT SUN MAY 01 2016

NOTE: "FAIR" INDICATES FEW OR NO CLOUDS BELOW 12,000 FEET WITH NO
SIGNIFICANT WEATHER AND OR OBSTRUCTIONS TO VISIBILITY.


SDZ038>040-050-052>070-011700-
SOUTHEAST SOUTH DAKOTA

CITY           SKY/WX    TMP DP  RH WIND       PRES   REMARKS
BROOKINGS      SUNNY     47  36  65 N13       30.20R
CHAMBERLAIN    SUNNY     52  37  56 N22G28    30.24F
HURON          SUNNY     50  33  52 N18       30.24S
MADISON        FAIR      45  41  87 NE16      30.20S
MITCHELL       SUNNY     49  38  65 N12       30.23S
SIOUX FALLS    PTSUNNY   47  38  71 N15       30.19S
WINNER         FAIR      51  37  58 N20       30.26S
YANKTON        CLOUDY    43  37  81 N14       30.19S
$$

MNZ071-072-080-081-089-090-097-098-011700-
SOUTHWEST MINNESOTA

CITY           SKY/WX    TMP DP  RH WIND       PRES   REMARKS
FAIRMONT       CLOUDY    45  36  70 N13       30.12S
JACKSON        CLOUDY    45  37  76 N14       30.14R
LUVERNE        CLOUDY    43  36  75 N10       30.18R
MARSHALL       SUNNY     48  37  65 NE12      30.20S
MONTEVIDEO     SUNNY     54  36  50 E17       30.22S
REDWOOD FALLS  SUNNY     51  34  52 NE10G17   30.18R
TRACY          CLOUDY    47  39  74 N13       30.19R
WINDOM         CLOUDY    48  41  76 N13       30.15S
WORTHINGTON    CLOUDY    43  38  82 N20       30.15S
$$

IAZ001>003-012>014-020>022-031-032-NEZ013-014-SDZ071-011700-
NORTHWEST IOWA

CITY           SKY/WX    TMP DP  RH WIND       PRES   REMARKS
CHEROKEE       LGT RAIN  43  42  97 N14       30.12R
DENISON        MIX PCPN  45  43  93 NE12G18   30.06R
ESTHERVILLE    CLOUDY    44  39  82 N13       30.12S
LE MARS        CLOUDY    45  41  87 N14       30.16R
ORANGE CITY    CLOUDY    45  39  81 N10G20    30.15R
SHELDON        CLOUDY    43  39  87 N18       30.14R
SIOUX CITY     LGT RAIN  46  42  86 N12       30.15R FOG
SPENCER        LGT RAIN  45  39  79 NE15      30.13R
STORM LAKE     CLOUDY    43  41  93 NE20      30.10R FOG
$$

ABBREVIATIONS USED IN REMARKS
   TC - TEMPERATURE IN CELSIUS
  WCI - WIND CHILL INDEX
   HX - HEAT INDEX
  VSB - VISIBILITY





USA.gov is the U.S. government's official web portal to all federal, state and local government web resources and services.